Simultaneous Nadir Overpasses (SNOs) Predictions

Prediction of SNOs over PacNW region [( 10.00, 139.50) to ( 22.70, 165.60)] between AQUA and NPP Satellites:

Table of predicted SNOs over PacNW region for the next 30.0 days since TLE Epoch: 2/26/2016
Index Date (AQUA) Time (AQUA) AQUA Lat,Lon Date (NPP) Time (NPP) NPP Lat,Lon Distance(km) Time Diff (sec)
1 03/02/2016 15:10:14 22.59, 159.81 03/02/2016 15:12:12 23.17, 157.31 264.65 118
2 03/05/2016 03:32:06 22.68, 147.48 03/05/2016 03:28:36 23.29, 145.70 194.06 210
3 03/10/2016 15:59:44 22.59, 147.45 03/10/2016 16:02:50 23.19, 144.64 295.81 186
4 03/18/2016 15:10:19 22.60, 159.82 03/18/2016 15:11:59 23.18, 157.34 262.72 100
5 03/21/2016 03:32:08 22.66, 147.49 03/21/2016 03:28:39 24.31, 145.47 275.94 209




NCC Satellite Simultaneous Nadir Overpasses (SNOs) Prediction Service
